BREEZE-M R/B, 43868

Orbit data source: Space-Track

BREEZE-M R/B, 43868 is space debris in GEO originally from a launch on Fri, 21 Dec 2018 UTC launched from the Tyuratam Missile And Space Complex (TTMTR). Debris objects in space refer to the collection of defunct objects orbiting the Earth. Examples of debris include non-operational satellites, rocket bodies, and fragments generated from explosions, collisions, or faulty payload assembly.

Loading next visibility...
Identifier
43868, 2018-107B
Orbit
GEO
Country
Flag of CISCIS
Related business
Manufacturer
Khrunichev
Mission
Spacecraft
Bus & Motor
BRIZ, Unknown motor
Mass
~1,600 kg wet, 1,600 kg dry
Launch date (UTC)
2018-12-21 (8 years ago)
Launch vehicle
Unknown
Launch site
Tyuratam Missile And Space Complex (TTMTR)
Object type
Payload
Rocket body
Debris
Shape & HBR
Cyl, 2.0 m
Radar Cross Section
15.135 m², Medium (>0.1 m² and < 1m²)

Expand to show TLE details & history
Last TLE update: 3 days ago

TLE from 3 days ago
0 BREEZE-M R/B
1 43868U 18107B   26170.60084872 -.00000171  00000-0  00000-0 0  9997
2 43868   7.4399  73.7504 0725644 312.6705  41.3334  0.90470070 24732
Epoch: 2026-06-19T14:25Z
TLE epoch observation values (Epoch: 2026-06-19T14:25:13.329Z)
Latitude
Longitude
-50.51871°
Altitude
36,431.185 km
Speed
3.13 km/s
True Right ascension
04h 54m 27s
True Declination
0° 00' 00"
Sunlit
Object was in daylight at epoch
Visualization orbit readout
Latitude
Unknown
Longitude
Unknown
Altitude
Unknown
Speed
Unknown
Apparent Right ascension
Unknown
Apparent Declination
Unknown
Sunlit
N/A
Visualization observer readout
Local Sidereal Time
23:07:41
Azimuth
Unknown
Elevation
Unknown
Doppler factor
Unknown
Orbital elements
Apogee altitude
42,057.47 km
Perigee altitude
35,503.643 km
Semi-major axis
45,158.694 km
Eccentricity
0.07256
Inclination
7.4399°
RAAN
73.7504°
Arg. of periapsis
312.6705°
True anomaly
47.21479°
Mean anomaly
41.3334°
Eccentric anomaly
44.23371°
Mean motion
0.22617 °/min
Orbital period
1,591.74 mins
BSTAR
0
Loading maneuver chart data...
Computing Atmospheric mass density...
Loading historical data...
Loading historical data...
Loading historical data...
Loading historical data...
Loading historical data...
Loading historical data...
Loading historical data...
Other satellites on launch #107 in the year 2018 (2018-12-21 UTC)

Documentation

Showing up to 5 results
|